Time,TemperatureF,DewpointF,PressureIn,WindDirection,WindDirectionDegrees,WindSpeedMPH,WindSpeedGustMPH,Humidity,HourlyPrecipIn,Conditions,Clouds,dailyrainin,SolarRadiationWatts/m^2,SoftwareType,DateUTC
2013-04-22 00:00:00,42.0,15.0,-100.00,ESE,111,1.0,5.0,34,-99.99,,,0.00,0.000000,,2013-04-22 06:00:00,
2013-04-22 01:00:00,41.0,-99.9,-100.00,North,-999,-999.0,-999.0,-999,-99.99,,,0.00,,,2013-04-22 07:00:00,
2013-04-22 01:52:00,41.0,-99.9,-100.00,North,-999,-999.0,-999.0,-999,-99.99,,,0.00,,,2013-04-22 07:52:00,
2013-04-22 02:00:00,39.0,15.0,-100.00,SE,137,2.0,4.0,38,-99.99,,,0.00,0.000000,,2013-04-22 08:00:00,
2013-04-22 03:00:00,40.0,17.0,-100.00,SE,138,2.0,4.0,39,-99.99,,,0.00,0.000000,,2013-04-22 09:00:00,
2013-04-22 04:00:00,38.0,16.0,-100.00,SE,141,2.0,7.0,41,-99.99,,,0.00,0.000000,,2013-04-22 10:00:00,
2013-04-22 05:00:00,36.0,18.0,-100.00,SE,146,2.0,4.0,46,-99.99,,,0.00,0.000000,,2013-04-22 11:00:00,
2013-04-22 06:00:00,37.0,18.0,-100.00,SE,145,2.0,4.0,46,-99.99,,,0.00,0.000000,,2013-04-22 12:00:00,
2013-04-22 07:00:00,39.0,20.0,-100.00,SE,136,2.0,5.0,45,-99.99,,,0.00,6.100000,,2013-04-22 13:00:00,
2013-04-22 08:00:00,43.0,20.0,-100.00,ESE,117,1.0,4.0,40,-99.99,,,0.00,60.400002,,2013-04-22 14:00:00,
2013-04-22 09:00:00,46.0,17.0,-100.00,NNE,18,1.0,5.0,31,-99.99,,,0.00,82.400002,,2013-04-22 15:00:00,
2013-04-22 10:00:00,49.0,18.0,-100.00,NNE,18,2.0,7.0,29,-99.99,,,0.00,273.799988,,2013-04-22 16:00:00,
2013-04-22 11:00:00,51.0,17.0,-100.00,NNE,17,4.0,10.0,25,-99.99,,,0.00,349.500000,,2013-04-22 17:00:00,
2013-04-22 12:00:00,53.0,16.0,-100.00,NNE,16,3.0,10.0,23,-99.99,,,-99.99,870.299988,,2013-04-22 18:00:00,
2013-04-22 13:00:00,55.0,16.0,-100.00,NNE,16,4.0,9.0,21,-99.99,,,0.00,,,2013-04-22 19:00:00,
2013-04-22 14:00:00,57.0,15.0,-100.00,NNE,18,4.0,9.0,19,-99.99,,,-99.99,,,2013-04-22 20:00:00,
2013-04-22 15:00:00,58.0,13.0,-100.00,NNE,16,4.0,11.0,17,-99.99,,,-99.99,,,2013-04-22 21:00:00,
2013-04-22 16:00:00,56.0,13.0,-100.00,NNE,14,4.0,9.0,18,-99.99,,,0.00,613.299988,,2013-04-22 22:00:00,
2013-04-22 17:00:00,58.0,14.0,-100.00,NNE,24,4.0,11.0,17,-99.99,,,0.00,654.200012,,2013-04-22 23:00:00,
2013-04-22 18:00:00,57.0,11.0,-100.00,NNE,21,3.0,10.0,16,-99.99,,,0.00,239.899994,,2013-04-23 00:00:00,
2013-04-22 19:00:00,54.0,-99.9,-100.00,North,-999,-999.0,-999.0,-999,-99.99,,,-99.99,,,2013-04-23 01:00:00,
2013-04-22 19:53:00,54.0,-99.9,-100.00,North,-999,-999.0,-999.0,-999,-99.99,,,-99.99,,,2013-04-23 01:53:00,
2013-04-22 20:00:00,52.0,12.0,-100.00,NE,44,2.0,6.0,20,-99.99,,,0.00,14.000000,,2013-04-23 02:00:00,
2013-04-22 21:00:00,50.0,13.0,-100.00,East,83,2.0,6.0,22,-99.99,,,0.00,0.000000,,2013-04-23 03:00:00,
2013-04-22 22:00:00,50.0,16.0,-100.00,ESE,114,1.0,4.0,25,-99.99,,,0.00,0.000000,,2013-04-23 04:00:00,
2013-04-22 23:00:00,48.0,11.0,-100.00,ESE,106,1.0,5.0,22,-99.99,,,-99.99,0.000000,,2013-04-23 05:00:00,